Showing default

DEORBITSAIL, 40719

Orbit data source: Space-Track

DEORBITSAIL, 40719 is a payload satellite owned by Surrey Space Ctr (UK) in SSO that was launched on Fri, 10 Jul 2015 UTC via a PSLV-XL launch vehicle from the Sirharikota (SRI). Payload-class satellites include a variety of spacecraft equipped with specific instruments for various scientific and technological missions. These include communications satellites like Starlink; space stations such as the ISS; scientific satellites like the Hubble; Earth observation satellites from companies like Planet Labs, Umbra, and HawkEye 360; GPS; miniature CubeSats for education and research; and military/defense satellites.

Loading next visibility...
Identifier
40719, 2015-032E
Orbit
SSO
Last TLE update
7 hours ago
Origin
Manufacturer
Surrey Space Ctr
Mission
Non-operational Amateur Technology
Bus & Motor
CUBESAT 3U, Unknown motor
Mass
7 kg wet, 7 kg dry
Launch date (UTC)
2015-07-10 (10 years ago)
Launch vehicle
PSLV-XL
Launch site
Sirharikota (SRI)
Object type
Payload
Rocket body
Debris
Shape & HBR
Box + 1 Sail, 7.1 m
Radar Cross Section
0.039 m², Small (<0.1 m²)

Expand to show TLE details & history

TLE from 7 hours ago
0 DEORBITSAIL
1 40719U 15032E   25183.59157060  .00004606  00000-0  40403-3 0  9994
2 40719  97.6404  42.6580 0010320 317.1072  42.9344 14.97074730538829
Epoch: 2025-07-02T14:11Z
TLE epoch observation values (Epoch: 2025-07-02T14:11:51.699Z)
Latitude
-0.00007°
Longitude
-91.17787°
Altitude
573.741 km
Speed
7.577 km/s
True Right ascension
02h 50m 37s
True Declination
0° 00' 00"
Sunlit
Object was in daylight at epoch
Visualization orbit readout
Latitude
30.9007°
Longitude
-95.49086°
Altitude
578.072 km
Speed
7.575 km/s
Apparent Right ascension
23h 54m 17s
Apparent Declination
-3° 52' 01"
Sunlit
Object is in daylight
Visualization observer readout
Local Sidereal Time
08:29:13
Azimuth
294.141° NW
Elevation
-31.47°
Doppler factor
1
Orbital elements
Apogee altitude
580.121 km
Perigee altitude
565.773 km
Semi-major axis
6,951.084 km
Eccentricity
0.00103
Inclination
97.6404°
RAAN
42.658°
Arg. of periapsis
317.1072°
True anomaly
Unknown
Mean anomaly
42.9344°
Eccentric anomaly
Unknown
Mean motion
3.74511 °/min
Orbital period
96.13 mins
BSTAR
0.00040403
Loading maneuver chart data...
Loading SW <> Apogee altitude chart data...
Loading historical data...
Loading historical data...
Loading historical data...
Loading historical data...
Loading historical data...
Loading historical data...
Loading historical data...
Other satellites on launch #32 in the year 2015 (2015-07-10 UTC)

DEORBITSAIL Visibility forecast

Observer location: undefined°, undefined°

Span
Click to sort rows by Start time (UTC) header in descending order
Start Az.
Max El. time (UTC)
Max El. Az.
Max El.
End time (UTC)
End Az.
8 mins2025-07-03 03:35:08.275Z8.983° NNE2025-07-03 03:39:08.275Z276.333° WNW44.264°2025-07-03 03:43:08.275Z198.349° SSW
6 mins2025-07-03 14:24:08.275Z146.6° SSE2025-07-03 14:26:08.275Z100.323° ESE39.472°2025-07-03 14:30:08.275Z357.005° N
|